GW1027 Weather Reports


Display with metric or nautical units.
time (UTC)temp
F
wind
direction
speed
MPH
gust
MPH
rain 1hr
in
rain 24hr
in
rain mn
in
humidity
%
barometer
mb
20260901031704 64 229 1.0 2.0 0.00 0.00 0.00 89 995.5
20260901031207 64 196 1.0 2.0 0.00 0.00 0.00 88 995.5
20260901030704 64 309 2.0 8.0 0.00 0.00 0.00 88 995.5
20260901030204 64 266 1.0 2.0 0.00 0.00 0.00 88 995.6
20260901025704 64 215 2.0 2.0 0.00 0.00 0.00 88 995.7
20260901025204 64 202 2.0 3.0 0.00 0.00 0.00 88 995.6
20260901024204 64 230 1.0 2.0 0.00 0.00 0.00 88 995.6
20260901023204 64 198 2.0 6.0 0.00 0.00 0.00 88 995.6
20260901022704 65 299 1.0 2.0 0.00 0.00 0.00 88 995.7
20260901021704 65 186 1.0 3.0 0.00 0.00 0.00 87 995.7
20260901021203 65 151 1.0 2.0 0.00 0.00 0.00 86 995.7
20260901020704 65 273 1.0 3.0 0.00 0.00 0.00 85 995.6
20260901020203 66 292 1.0 3.0 0.00 0.00 0.00 84 995.7
20260901015703 66 306 2.0 6.0 0.00 0.00 0.00 83 995.7
20260901015204 66 328 2.0 6.0 0.00 0.00 0.00 83 995.6
20260901014203 66 338 2.0 3.0 0.00 0.00 0.00 81 995.5
20260901013704 66 290 2.0 3.0 0.00 0.00 0.00 81 995.4
20260901013203 66 242 2.0 3.0 0.00 0.00 0.00 81 995.4
20260901012203 66 301 2.0 3.0 0.00 0.00 0.00 81 995.5
20260901011704 66 273 2.0 6.0 0.00 0.00 0.00 82 995.4
20260901011205 66 303 2.0 6.0 0.00 0.00 0.00 82 995.4
20260901010704 66 306 2.0 6.0 0.00 0.00 0.00 82 995.4
20260901005704 67 252 2.0 8.0 0.00 0.00 0.00 81 995.4
20260901005204 67 217 3.0 8.0 0.00 0.00 0.00 81 995.2
20260901004704 67 68 2.0 6.0 0.00 0.00 0.00 79 995.3
20260901003204 68 278 2.0 5.0 0.00 0.00 0.00 78 995.4
20260901002203 69 299 1.0 2.0 0.00 0.00 0.00 78 995.4
20260901001704 69 326 1.0 2.0 0.00 0.00 0.00 77 995.4
20260901001203 69 320 1.0 3.0 0.00 0.00 0.00 77 995.5
20260901000204 69 316 1.0 3.0 0.00 0.00 0.00 76 995.4
20260831235705 69 338 1.0 3.0 0.00 0.00 0.00 76 995.4
20260831235204 69 349 2.0 5.0 0.00 0.00 0.00 76 995.4
20260831234704 70 297 2.0 6.0 0.00 0.00 0.00 77 995.3
20260831234203 70 300 2.0 5.0 0.00 0.00 0.00 75 995.3
20260831233204 70 334 3.0 7.0 0.00 0.00 0.00 75 995.2
20260831232704 70 323 5.0 6.0 0.00 0.00 0.00 74 995.2
20260831232203 70 3 2.0 7.0 0.00 0.00 0.00 74 995.4
20260831231704 70 0 2.0 3.0 0.00 0.00 0.00 73 995.4
20260831231204 71 1 2.0 5.0 0.00 0.00 0.00 73 995.4
20260831230704 71 272 2.0 5.0 0.00 0.00 0.00 73 995.5
20260831230203 71 1 1.0 1.0 0.00 0.00 0.00 73 995.4
20260831225704 72 315 2.0 3.0 0.00 0.00 0.00 72 995.4
20260831225204 72 337 1.0 2.0 0.00 0.00 0.00 72 995.5
20260831224704 72 352 1.0 1.0 0.00 0.00 0.00 71 995.5
20260831224204 72 352 1.0 2.0 0.00 0.00 0.00 72 995.5
20260831223703 72 336 1.0 1.0 0.00 0.00 0.00 72 995.6
20260831223204 72 323 0.0 1.0 0.00 0.00 0.00 73 995.6
20260831222704 72 311 1.0 1.0 0.00 0.00 0.00 73 995.6
20260831222204 72 40 1.0 1.0 0.00 0.00 0.00 72 995.6
20260831221705 73 334 1.0 1.0 0.00 0.00 0.00 71 995.6
20260831221204 73 351 1.0 2.0 0.00 0.00 0.00 70 995.6
20260831220705 73 312 1.0 2.0 0.00 0.00 0.00 69 995.5
20260831220204 74 347 1.0 2.0 0.00 0.00 0.00 68 995.5
20260831215704 74 347 1.0 2.0 0.00 0.00 0.00 67 995.6
20260831215204 74 225 1.0 2.0 0.00 0.00 0.00 66 995.6
20260831214703 75 356 0.0 1.0 0.00 0.00 0.00 61 995.6
20260831214204 75 332 1.0 1.0 0.00 0.00 0.00 58 995.6
20260831213703 75 271 1.0 2.0 0.00 0.00 0.00 59 995.6
20260831213203 76 17 0.0 1.0 0.00 0.00 0.00 59 995.5
20260831211705 76 8 2.0 2.0 0.00 0.00 0.00 53 995.5
20260831211204 76 354 1.0 2.0 0.00 0.00 0.00 55 995.6
20260831210704 76 287 1.0 1.0 0.00 0.00 0.00 55 995.6
20260831210204 76 341 1.0 2.0 0.00 0.00 0.00 55 995.6
20260831204704 77 194 1.0 1.0 0.00 0.00 0.00 54 995.6
20260831204204 77 337 1.0 1.0 0.00 0.00 0.00 53 995.6
20260831203704 77 256 0.0 2.0 0.00 0.00 0.00 52 995.8
20260831203203 77 333 1.0 1.0 0.00 0.00 0.00 52 995.8
20260831202704 77 0 1.0 1.0 0.00 0.00 0.00 52 995.8
20260831201703 77 273 1.0 2.0 0.00 0.00 0.00 53 996.0
20260831201204 78 82 1.0 2.0 0.00 0.00 0.00 54 996.1
20260831200704 79 158 2.0 3.0 0.00 0.00 0.00 50 996.2
20260831200203 79 236 2.0 3.0 0.00 0.00 0.00 50 996.3
20260831195705 80 102 1.0 3.0 0.00 0.00 0.00 51 996.3
20260831195204 81 201 1.0 3.0 0.00 0.00 0.00 50 996.4
20260831194204 84 130 0.0 1.0 0.00 0.00 0.00 49 996.4
20260831193704 87 174 1.0 3.0 0.00 0.00 0.00 45 996.5
20260831192707 91 279 2.0 2.0 0.00 0.00 0.00 40 996.5
20260831192203 90 351 3.0 3.0 0.00 0.00 0.00 43 996.5
20260831191703 90 152 2.0 5.0 0.00 0.00 0.00 40 996.5
20260831190703 88 143 3.0 3.0 0.00 0.00 0.00 44 996.6
20260831190204 90 155 5.0 7.0 0.00 0.00 0.00 44 996.6
20260831185703 92 147 2.0 7.0 0.00 0.00 0.00 41 996.6
20260831185203 90 315 1.0 6.0 0.00 0.00 0.00 44 996.6
20260831184204 92 334 1.0 5.0 0.00 0.00 0.00 40 996.7
20260831183704 90 284 1.0 3.0 0.00 0.00 0.00 40 996.8
20260831183204 90 170 2.0 5.0 0.00 0.00 0.00 41 996.8
20260831182204 88 216 2.0 5.0 0.00 0.00 0.00 45 996.9
20260831181704 89 206 2.0 2.0 0.00 0.00 0.00 42 997.0
20260831181203 88 297 3.0 3.0 0.00 0.00 0.00 43 997.1
20260831175205 85 164 1.0 3.0 0.00 0.00 0.00 47 997.3
20260831174703 83 307 1.0 5.0 0.00 0.00 0.00 49 997.4
20260831174204 83 13 2.0 5.0 0.00 0.00 0.00 48 997.5
20260831173704 82 249 1.0 5.0 0.00 0.00 0.00 51 997.5
20260831173204 83 106 2.0 3.0 0.00 0.00 0.00 53 997.5
20260831172703 83 186 1.0 2.0 0.00 0.00 0.00 52 997.6
20260831172204 82 341 1.0 2.0 0.00 0.00 0.00 54 997.6
20260831171704 80 322 1.0 2.0 0.00 0.00 0.00 56 997.6
20260831170703 79 227 1.0 2.0 0.00 0.00 0.00 58 997.6
20260831170203 79 22 1.0 1.0 0.00 0.00 0.00 58 997.6
20260831165704 80 171 1.0 2.0 0.00 0.00 0.00 59 997.7
20260831165204 79 192 1.0 2.0 0.00 0.00 0.00 60 997.7
20260831164203 76 328 2.0 2.0 0.00 0.00 0.00 63 997.6
20260831163704 76 337 2.0 3.0 0.00 0.00 0.00 65 997.8
20260831163204 76 56 2.0 3.0 0.00 0.00 0.00 67 997.9
20260831162703 77 49 1.0 3.0 0.00 0.00 0.00 64 997.9
20260831162204 77 47 2.0 3.0 0.00 0.00 0.00 63 997.9
20260831161203 74 19 1.0 2.0 0.00 0.00 0.00 68 998.0
20260831160704 73 243 4.0 10.0 0.00 0.00 0.00 66 998.1
20260831160205 73 346 1.0 7.0 0.00 0.00 0.00 71 998.1
20260831155704 74 270 2.0 6.0 0.00 0.00 0.00 69 998.2
20260831155205 76 250 1.0 3.0 0.00 0.00 0.00 67 998.2
20260831154703 76 300 2.0 3.0 0.00 0.00 0.00 65 998.3
20260831154203 74 226 2.0 3.0 0.00 0.00 0.00 68 998.3
20260831153704 73 199 3.0 10.0 0.00 0.00 0.00 70 998.3
20260831153203 73 170 1.0 7.0 0.00 0.00 0.00 71 998.4
20260831152204 71 139 1.0 2.0 0.00 0.00 0.00 74 998.3
20260831151703 71 136 1.0 2.0 0.00 0.00 0.00 74 998.2
20260831151204 71 137 1.0 2.0 0.00 0.00 0.00 76 998.2
20260831150705 71 139 2.0 3.0 0.00 0.00 0.00 74 998.2
20260831150204 72 145 1.0 2.0 0.00 0.00 0.00 73 998.1
20260831145703 71 136 1.0 1.0 0.00 0.00 0.00 74 998.0
20260831145204 71 135 1.0 1.0 0.00 0.00 0.00 75 998.0
20260831144704 70 136 1.0 2.0 0.00 0.00 0.00 76 998.0
20260831144204 69 137 1.0 1.0 0.00 0.00 0.00 78 998.1
20260831143703 69 139 1.0 1.0 0.00 0.00 0.00 78 998.2
20260831142204 67 142 1.0 2.0 0.00 0.00 0.00 80 998.4
20260831141704 67 143 1.0 2.0 0.00 0.00 0.00 82 998.4
20260831141203 67 140 1.0 2.0 0.00 0.00 0.00 82 998.4
20260831140203 66 140 1.0 1.0 0.00 0.00 0.00 84 998.4
20260831135704 66 139 1.0 1.0 0.00 0.00 0.00 85 998.4
20260831135204 66 142 1.0 1.0 0.00 0.00 0.00 84 998.4
20260831134204 65 139 1.0 1.0 0.00 0.00 0.00 84 998.4
20260831133705 65 158 1.0 2.0 0.00 0.00 0.00 86 998.4
20260831133204 65 196 1.0 2.0 0.00 0.00 0.00 87 998.3
20260831132704 65 138 1.0 2.0 0.00 0.00 0.00 87 998.4
20260831132204 65 164 1.0 2.0 0.00 0.00 0.00 88 998.4
20260831131703 64 139 0.0 2.0 0.00 0.00 0.00 88 998.4
20260831131203 64 136 2.0 3.0 0.00 0.00 0.00 87 998.4
20260831130203 63 135 2.0 3.0 0.00 0.00 0.00 91 998.5
20260831125704 63 138 1.0 2.0 0.00 0.00 0.00 90 998.6
20260831125204 63 138 1.0 2.0 0.00 0.00 0.00 92 998.6
20260831123704 62 137 1.0 2.0 0.00 0.00 0.00 95 998.6
20260831122704 62 149 2.0 2.0 0.00 0.00 0.00 96 998.7
20260831122203 62 136 1.0 2.0 0.00 0.00 0.00 96 998.7
20260831121703 62 138 1.0 2.0 0.00 0.00 0.00 96 998.7
20260831121204 62 159 2.0 3.0 0.00 0.00 0.00 96 998.7
20260831120705 62 145 5.0 15.0 0.00 0.00 0.00 96 998.6
20260831120204 62 242 4.0 15.0 0.00 0.00 0.00 97 998.6
20260831115704 62 277 3.0 7.0 0.00 0.00 0.00 99 998.6
20260831115204 62 236 2.0 9.0 0.00 0.00 0.00 98 998.6
20260831114704 61 231 1.0 3.0 0.00 0.00 0.00 99 998.6
20260831114204 61 215 2.0 3.0 0.00 0.00 0.00 99 998.6
20260831113704 61 44 2.0 3.0 0.00 0.00 0.00 99 998.5
20260831112703 60 37 1.0 2.0 0.00 0.00 0.00 99 998.4
20260831112203 60 223 2.0 3.0 0.00 0.00 0.00 99 998.3
20260831111704 60 217 1.0 3.0 0.00 0.00 0.00 99 998.2
20260831111204 60 139 1.0 3.0 0.00 0.00 0.00 99 998.2
20260831110705 60 59 1.0 1.0 0.00 0.00 0.00 99 998.1
20260831110203 60 48 2.0 3.0 0.00 0.00 0.00 99 998.0
20260831105704 60 64 1.0 3.0 0.00 0.00 0.00 99 998.0
20260831105204 60 73 1.0 3.0 0.00 0.00 0.00 99 998.0
20260831104704 60 187 1.0 2.0 0.00 0.00 0.00 99 997.9
20260831104204 60 166 2.0 3.0 0.00 0.00 0.00 99 997.8
20260831103703 60 177 2.0 6.0 0.00 0.00 0.00 99 997.8
20260831102703 60 207 1.0 2.0 0.00 0.00 0.00 99 997.8
20260831102204 60 221 2.0 2.0 0.00 0.00 0.00 99 997.9
20260831101703 60 219 2.0 3.0 0.00 0.00 0.00 99 997.8
20260831101203 60 224 2.0 3.0 0.00 0.00 0.00 99 997.8
20260831100703 60 207 2.0 3.0 0.00 0.00 0.00 99 997.8
20260831100203 60 186 2.0 3.0 0.00 0.00 0.00 99 997.8
20260831095703 60 199 1.0 2.0 0.00 0.00 0.00 99 997.7
20260831095203 60 171 2.0 2.0 0.00 0.00 0.00 99 997.6
20260831094703 60 158 1.0 2.0 0.00 0.00 0.00 99 997.6
20260831094204 60 146 2.0 2.0 0.00 0.00 0.00 99 997.6
20260831093704 60 198 1.0 2.0 0.00 0.00 0.00 99 997.5
20260831092704 60 124 1.0 1.0 0.00 0.00 0.00 99 997.6
20260831092204 60 121 1.0 2.0 0.00 0.00 0.00 99 997.5
20260831091704 60 210 1.0 1.0 0.00 0.00 0.00 99 997.5
20260831091204 60 214 1.0 2.0 0.00 0.00 0.00 99 997.5
20260831090704 60 220 1.0 1.0 0.00 0.00 0.00 99 997.5
20260831090204 60 230 1.0 2.0 0.00 0.00 0.00 99 997.4
20260831085703 59 49 1.0 3.0 0.00 0.00 0.00 99 997.3
20260831085204 59 63 2.0 3.0 0.00 0.00 0.00 99 997.3
20260831083704 59 63 2.0 2.0 0.00 0.00 0.00 99 997.2
20260831083203 59 58 2.0 2.0 0.00 0.00 0.00 99 997.2
20260831082704 59 198 2.0 2.0 0.00 0.00 0.00 99 997.2
20260831082204 59 38 2.0 2.0 0.00 0.00 0.00 99 997.3
20260831081704 59 65 2.0 2.0 0.00 0.00 0.00 99 997.2
20260831081205 59 53 2.0 3.0 0.00 0.00 0.00 99 997.2
20260831080704 59 50 2.0 3.0 0.00 0.00 0.00 99 997.2
20260831080204 59 43 1.0 2.0 0.00 0.00 0.00 99 997.2
20260831075705 59 60 1.0 3.0 0.00 0.00 0.00 99 997.1
20260831075203 59 51 1.0 3.0 0.00 0.00 0.00 99 997.1
20260831074704 59 41 1.0 2.0 0.00 0.00 0.00 99 997.1
20260831074204 59 209 1.0 1.0 0.00 0.00 0.00 99 997.1
20260831073704 59 193 1.0 1.0 0.00 0.00 0.00 99 997.0
20260831073203 59 89 1.0 1.0 0.00 0.00 0.00 99 997.0
20260831072703 59 176 1.0 2.0 0.00 0.00 0.00 99 997.0
20260831072204 59 80 2.0 3.0 0.00 0.00 0.00 99 997.0
20260831071704 59 66 2.0 3.0 0.00 0.00 0.00 99 997.0
20260831071204 59 97 2.0 2.0 0.00 0.00 0.00 99 997.0
20260831070203 59 220 1.0 2.0 0.00 0.00 0.00 99 996.9
20260831064703 60 220 1.0 2.0 0.00 0.00 0.00 98 996.7
20260831063703 60 222 1.0 2.0 0.00 0.00 0.00 98 996.6
20260831063204 60 57 1.0 2.0 0.00 0.00 0.00 97 996.5
20260831062704 60 270 2.0 2.0 0.00 0.00 0.00 97 996.5
20260831061703 61 223 2.0 3.0 0.00 0.00 0.00 96 996.6
20260831061203 61 225 1.0 2.0 0.00 0.00 0.00 97 996.6
20260831060704 61 225 1.0 2.0 0.00 0.00 0.00 96 996.7
20260831060204 61 223 2.0 2.0 0.00 0.00 0.00 97 996.8
20260831055704 61 223 2.0 2.0 0.00 0.00 0.00 96 996.8
20260831054703 62 225 2.0 2.0 0.00 0.00 0.00 96 996.9
20260831054204 62 223 2.0 2.0 0.00 0.00 0.00 96 996.9
20260831053704 62 223 2.0 2.0 0.00 0.00 0.00 96 996.9
20260831053203 62 224 2.0 2.0 0.00 0.00 0.00 95 996.8
20260831052204 62 222 2.0 2.0 0.00 0.00 0.00 95 996.8
20260831051704 62 225 2.0 2.0 0.00 0.00 0.00 95 996.8
20260831050704 62 224 2.0 2.0 0.00 0.00 0.00 95 996.7
20260831050204 62 225 2.0 2.0 0.00 0.00 0.00 95 996.7
20260831045703 62 224 2.0 2.0 0.00 0.00 0.00 95 996.7
20260831045204 62 223 1.0 2.0 0.00 0.00 0.00 95 996.7
20260831044704 63 224 2.0 2.0 0.00 0.00 0.00 95 996.7
20260831044204 63 223 2.0 2.0 0.00 0.00 0.00 94 996.6
20260831043703 63 223 2.0 2.0 0.00 0.00 0.00 94 996.6
20260831043204 64 224 1.0 1.0 0.00 0.00 0.00 93 996.6
20260831042703 64 224 1.0 2.0 0.00 0.00 0.00 93 996.5
20260831042204 64 224 2.0 2.0 0.00 0.00 0.00 94 996.5
20260831041204 64 225 1.0 2.0 0.00 0.00 0.00 93 996.5
20260831040704 64 224 1.0 2.0 0.00 0.00 0.00 93 996.5
20260831040219 64 225 1.0 2.0 0.00 0.00 0.00 93 996.5
20260831034703 64 225 1.0 2.0 0.00 0.00 0.00 93 996.4
20260831034204 64 224 1.0 2.0 0.00 0.00 0.00 93 996.4
20260831033204 64 224 1.0 2.0 0.00 0.00 0.00 92 996.2
20260831032703 64 225 1.0 2.0 0.00 0.00 0.00 93 996.3
20260831032204 64 225 1.0 2.0 0.00 0.00 0.00 93 996.2